TimeEST,TemperatureF,Dew PointF,Humidity,Sea Level PressureIn,VisibilityMPH,Wind Direction,Wind SpeedMPH,Gust SpeedMPH,PrecipitationIn,Events,Conditions,WindDirDegrees,DateUTC
12:51 AM,37.0,28.0,70,29.34,10.0,WSW,12.7,-,N/A,,Overcast,240,2012-12-22 05:51:00
12:58 AM,37.4,28.4,70,29.34,10.0,WSW,11.5,20.7,N/A,,Mostly Cloudy,240,2012-12-22 05:58:00
1:29 AM,37.4,28.4,70,29.34,10.0,WSW,13.8,26.5,0.00,Rain,Light Rain,250,2012-12-22 06:29:00
1:51 AM,37.0,30.0,76,29.34,10.0,West,13.8,21.9,0.00,,Overcast,260,2012-12-22 06:51:00
2:27 AM,37.4,28.4,70,29.35,10.0,WSW,13.8,32.2,0.00,,Overcast,250,2012-12-22 07:27:00
2:40 AM,37.4,28.4,70,29.35,10.0,West,16.1,31.1,0.00,,Overcast,260,2012-12-22 07:40:00
2:51 AM,37.0,28.9,73,29.36,10.0,WSW,15.0,23.0,0.00,,Overcast,250,2012-12-22 07:51:00
3:51 AM,37.9,28.0,68,29.37,10.0,West,17.3,27.6,N/A,,Overcast,260,2012-12-22 08:51:00
4:19 AM,37.4,28.4,70,29.37,10.0,West,19.6,29.9,0.00,Rain-Snow,Light Snow,270,2012-12-22 09:19:00
4:32 AM,37.4,28.4,70,29.38,10.0,West,20.7,29.9,0.00,Snow,Light Snow,270,2012-12-22 09:32:00
4:51 AM,37.4,28.4,70,29.38,10.0,West,19.6,26.5,N/A,,Overcast,260,2012-12-22 09:51:00
5:51 AM,37.9,28.9,70,29.42,10.0,West,16.1,25.3,0.00,,Overcast,270,2012-12-22 10:51:00
6:51 AM,37.9,26.1,62,29.45,10.0,WNW,15.0,25.3,0.00,,Overcast,290,2012-12-22 11:51:00
7:51 AM,37.0,25.0,62,29.49,10.0,WNW,19.6,33.4,N/A,,Overcast,290,2012-12-22 12:51:00
8:51 AM,37.9,21.0,51,29.52,10.0,WNW,25.3,32.2,0.00,,Mostly Cloudy,290,2012-12-22 13:51:00
9:51 AM,37.9,21.0,51,29.55,10.0,WNW,20.7,32.2,N/A,,Mostly Cloudy,300,2012-12-22 14:51:00
10:51 AM,39.0,19.0,45,29.57,10.0,WNW,21.9,33.4,N/A,,Mostly Cloudy,290,2012-12-22 15:51:00
11:51 AM,37.9,19.0,47,29.57,10.0,NW,24.2,40.3,N/A,,Mostly Cloudy,310,2012-12-22 16:51:00
12:51 PM,37.9,19.9,48,29.57,10.0,West,19.6,36.8,N/A,,Mostly Cloudy,280,2012-12-22 17:51:00
1:51 PM,39.0,19.9,46,29.60,10.0,WNW,28.8,42.6,N/A,,Overcast,300,2012-12-22 18:51:00
2:51 PM,39.0,21.0,49,29.62,10.0,WNW,27.6,40.3,N/A,,Mostly Cloudy,300,2012-12-22 19:51:00
3:51 PM,39.0,21.0,49,29.65,10.0,NW,23.0,34.5,N/A,,Mostly Cloudy,310,2012-12-22 20:51:00
4:51 PM,39.0,19.0,45,29.69,10.0,WNW,28.8,46.0,N/A,,Mostly Cloudy,290,2012-12-22 21:51:00
5:51 PM,39.0,18.0,43,29.72,10.0,WNW,27.6,40.3,N/A,,Partly Cloudy,300,2012-12-22 22:51:00
6:51 PM,37.9,19.0,47,29.74,10.0,NW,26.5,33.4,N/A,,Scattered Clouds,310,2012-12-22 23:51:00
7:51 PM,39.0,19.9,46,29.76,10.0,NW,24.2,33.4,N/A,,Partly Cloudy,310,2012-12-23 00:51:00
8:51 PM,39.2,21.2,49,29.77,10.0,WNW,23.0,29.9,N/A,,Partly Cloudy,300,2012-12-23 01:51:00
9:51 PM,39.0,19.9,46,29.79,10.0,WNW,24.2,38.0,N/A,,Partly Cloudy,300,2012-12-23 02:51:00
10:51 PM,37.9,21.9,53,29.80,10.0,NW,19.6,32.2,N/A,,Scattered Clouds,310,2012-12-23 03:51:00
11:51 PM,37.9,19.9,48,29.83,10.0,WNW,19.6,26.5,N/A,,Mostly Cloudy,300,2012-12-23 04:51:00